Wind_Gust
27 27 27 27 27 27 27 26 27 26 26 25 24 23 22 22 21 21 20 20 19 19 19 20 20 20 19 17 18 17 19 18 21 17 17 12 8 6 8 9 8 7 9 17 19 18 18 16 17 17 19 18 19 20 21 20 19 18 22 20 18 18 19 24 26 29 22 31 32 34 35 38 29 32 36 36 34 34 32 35 34 31 27 23 23 24 26 20
28 28 28 28 28 28 27 27 27 27 27 25 25 24 23 22 22 21 20 20 19 19 20 19 20 20 18 15 16 15 19 20 19 16 19 7 9 10 10 10 8 6 6 17 18 18 19 16 18 16 19 20 15 18 16 22 20 20 19 20 17 19 22 18 21 30 32 32 33 35 35 34 29 28 32 39 30 30 35 33 31 33 28 25 24 19 19 16
29 28 29 29 29 28 28 28 27 28 28 26 25 24 24 23 23 22 21 20 19 19 20 19 18 19 18 14 13 14 16 16 21 15 12 9 11 10 12 8 8 7 13 18 20 25 27 24 19 17 19 20 14 17 15 18 17 15 18 21 11 17 20 19 18 23 31 34 38 35 36 34 30 34 27 36 31 29 33 36 29 30 31 28 26 20 17 16
29 29 28 29 29 29 29 28 28 27 27 27 26 25 24 24 23 22 21 20 19 18 19 19 18 17 17 14 11 19 16 20 14 18 14 10 11 12 10 10 11 13 16 20 25 28 26 28 25 21 19 22 16 13 17 17 22 21 15 26 20 12 14 16 17 22 27 34 33 31 27 34 32 31 34 35 32 28 26 23 28 31 30 27 24 20 18 17
29 29 29 29 29 29 29 28 28 28 27 27 26 25 25 24 24 22 21 19 19 18 18 17 17 16 16 13 14 17 17 17 20 14 10 9 10 11 11 12 11 17 18 22 26 27 22 23 24 19 20 16 14 13 20 12 16 19 17 21 18 12 14 15 16 18 19 21 27 27 27 33 31 31 32 34 31 22 24 28 30 30 31 29 25 24 23 21
29 29 29 29 29 29 29 29 28 27 28 27 26 26 25 24 23 21 20 19 18 17 17 16 15 15 14 15 21 16 16 16 14 15 7 10 9 12 12 12 14 16 18 23 25 23 22 19 18 18 15 16 11 21 19 13 14 18 15 21 18 17 17 14 13 17 19 25 23 24 29 30 29 28 28 27 29 28 30 31 29 28 29 28 23 25 22 20
29 29 30 29 29 30 30 29 29 28 27 27 27 26 25 24 22 20 19 18 17 15 16 15 14 14 16 20 17 14 18 19 13 13 9 9 12 10 14 14 13 17 20 25 27 31 16 18 14 16 19 12 14 23 17 8 14 21 16 13 15 18 16 15 16 19 27 28 26 29 25 31 34 32 30 35 31 31 29 29 29 29 28 27 27 21 21 20
29 29 30 30 29 30 30 31 30 29 28 27 26 25 24 23 21 20 19 17 16 15 14 14 13 12 13 18 17 18 19 20 16 14 11 8 15 17 16 20 22 25 27 27 24 22 19 18 18 18 17 17 16 15 13 14 13 24 20 8 12 14 13 13 15 21 28 28 29 30 33 25 31 32 29 33 31 31 31 30 30 29 27 26 26 25 22 21
29 29 29 30 30 30 31 31 31 29 29 28 26 26 25 23 21 20 19 17 15 14 12 13 12 11 7 11 17 21 21 15 16 14 14 12 13 13 13 23 13 17 19 25 20 21 13 15 21 16 23 20 13 9 9 17 21 13 19 14 16 13 10 10 13 15 22 24 26 28 28 27 30 30 32 31 30 31 31 31 32 30 27 25 24 24 24 22
29 29 30 30 30 30 31 32 32 31 29 28 28 26 25 23 21 18 18 17 15 12 11 10 11 10 13 15 17 16 15 13 13 14 12 11 12 13 16 17 15 18 21 12 17 15 15 25 18 16 19 16 13 13 13 13 18 14 15 17 14 15 11 10 12 10 14 24 28 32 25 33 28 30 23 25 30 30 32 33 31 28 27 24 22 25 24 26
30 30 31 30 31 31 32 32 32 32 29 29 28 27 25 24 21 20 18 17 15 10 10 10 8 11 16 15 23 13 11 15 12 11 9 10 11 13 18 14 13 20 18 13 18 10 15 21 19 19 21 23 16 14 15 13 13 10 16 12 15 10 12 12 16 13 15 15 27 31 28 21 13 28 33 29 29 32 31 30 31 30 26 27 25 24 23 24
30 30 31 32 31 31 33 32 32 32 30 29 28 26 25 24 23 20 18 16 14 10 7 7 5 14 16 21 14 15 13 12 12 15 13 9 18 13 11 9 15 17 15 21 19 11 13 19 17 19 16 14 16 13 15 8 18 15 13 13 11 10 14 12 14 12 11 21 23 25 19 15 21 24 29 31 30 31 31 29 33 30 28 26 23 21 20 21
29 30 31 32 31 32 32 32 31 31 31 28 27 26 27 26 24 22 17 17 10 9 6 4 9 15 14 11 17 13 10 15 12 13 11 12 12 11 10 11 14 12 14 14 17 12 10 16 14 19 22 14 14 19 18 11 13 10 11 19 14 13 16 14 12 12 14 18 20 15 19 13 25 29 29 35 31 30 29 28 28 29 28 26 23 21 20 20
30 30 31 32 31 31 33 32 31 30 31 29 27 27 28 27 26 20 16 15 17 16 10 5 12 16 15 15 12 8 11 14 13 16 12 12 12 15 10 10 8 13 9 16 8 14 11 12 14 18 22 14 13 15 17 11 12 16 17 13 13 9 15 11 10 15 11 18 13 22 22 13 18 25 32 30 32 33 32 28 27 27 26 25 23 21 21 21
30 30 31 31 31 31 32 33 31 29 30 29 30 28 28 28 25 20 16 14 13 10 11 7 15 12 11 19 11 10 9 15 16 10 13 13 14 14 17 11 10 9 15 10 18 10 14 12 17 18 17 17 15 11 11 15 13 16 15 17 14 13 16 16 12 8 15 18 16 26 20 13 19 25 29 25 32 29 30 28 26 27 25 25 23 22 21 20
30 30 31 31 31 32 32 33 32 28 26 30 30 32 29 24 21 16 15 13 19 17 18 16 16 16 20 20 16 12 11 18 13 14 13 19 10 17 12 15 13 11 10 17 10 11 10 17 18 19 22 14 15 15 15 13 11 14 14 11 16 12 14 14 15 12 15 21 13 20 17 22 16 26 26 30 33 28 28 27 25 26 27 26 24 23 22 20
31 30 31 31 31 31 33 32 32 28 26 29 31 32 26 21 15 14 17 16 15 14 14 18 18 20 10 18 15 15 12 17 11 13 12 15 14 17 9 14 16 12 10 9 9 10 13 14 11 17 16 25 14 19 11 15 13 14 17 14 14 14 10 14 14 12 12 10 18 19 24 15 18 21 16 28 30 27 30 27 26 26 24 23 24 23 22 19
30 30 31 30 31 32 33 34 34 29 26 29 27 24 30 27 14 15 16 13 18 19 20 23 21 16 14 17 12 16 11 12 9 14 10 15 12 12 8 18 9 12 9 9 10 15 13 16 12 18 11 16 15 12 13 12 10 7 18 18 17 15 14 18 19 15 17 15 18 10 18 20 20 20 20 22 25 26 28 28 25 25 23 24 23 21 20 19
29 30 31 31 31 33 34 33 34 29 24 29 27 26 23 16 16 18 20 14 13 11 13 19 16 16 21 15 14 11 15 9 12 15 16 14 11 12 10 11 11 11 22 19 16 13 16 17 16 12 12 13 10 14 11 11 14 17 16 19 16 18 19 17 13 10 10 12 17 15 17 19 21 21 18 21 24 24 22 22 23 22 22 23 22 20 19 18
30 31 30 31 31 32 34 33 33 29 25 23 24 20 17 20 19 14 18 18 22 18 17 16 16 13 16 14 19 17 9 15 18 13 10 12 15 17 15 13 14 15 12 17 11 13 21 14 15 16 12 15 9 10 12 13 12 15 12 14 14 15 14 19 17 12 16 11 14 17 16 17 22 21 20 20 20 20 22 20 20 18 21 19 20 19 18 17
29 31 31 32 32 32 32 35 32 32 20 20 17 16 16 19 14 14 23 21 19 18 19 18 16 20 18 15 13 18 16 15 14 14 14 13 13 16 15 18 11 14 10 10 14 15 20 14 11 10 12 10 11 10 10 12 14 15 14 15 16 9 13 10 9 17 14 13 15 15 20 15 25 21 22 19 24 22 25 21 20 19 17 18 21 21 16 16
29 30 32 33 33 32 31 30 34 28 28 16 13 15 18 15 13 16 15 17 19 17 15 12 10 19 8 10 12 13 13 11 13 16 15 13 15 17 15 14 7 19 9 18 15 16 17 13 16 12 11 11 11 12 11 12 13 15 12 12 12 12 12 10 14 10 11 11 13 17 15 15 17 22 21 19 18 18 22 25 24 24 20 18 19 18 18 18
28 31 31 33 33 30 29 31 30 28 22 16 12 17 16 14 13 13 14 16 20 17 19 8 11 14 15 11 16 11 19 10 16 16 19 16 17 12 14 16 11 13 17 12 12 11 14 9 18 18 10 9 17 13 11 15 13 18 14 13 9 12 14 13 13 10 13 19 14 13 16 14 17 17 22 14 19 13 16 21 17 23 26 23 22 22 22 20
28 30 33 33 34 31 32 30 32 18 14 18 17 16 14 14 14 15 17 12 14 16 19 12 14 16 13 16 16 18 15 19 15 17 15 22 16 15 21 11 12 17 12 9 10 13 10 9 14 11 9 14 15 15 11 16 12 11 12 11 14 12 13 16 16 16 10 17 17 15 18 20 17 18 20 15 18 21 21 23 20 21 18 18 17 18 19 20
27 29 31 34 33 36 33 30 13 14 17 12 17 15 15 14 13 14 17 17 21 18 14 14 18 15 16 12 12 20 15 12 13 12 15 15 16 18 18 12 14 16 15 11 12 12 14 12 11 11 14 14 16 16 15 13 14 13 13 18 18 20 23 15 17 18 20 16 16 14 18 12 13 18 22 17 19 18 19 20 17 18 18 17 16 14 11 12
26 29 31 31 35 34 34 11 13 26 26 17 17 17 15 15 16 12 15 13 12 15 14 10 16 11 14 14 13 21 13 10 13 14 11 15 18 19 17 16 13 15 15 9 13 11 14 12 12 17 17 23 14 11 15 16 14 14 10 13 18 18 18 18 18 17 16 17 13 11 16 19 10 15 21 21 18 15 12 18 16 16 15 17 15 13 12 12
27 31 30 29 28 32 17 11 20 27 14 20 16 16 15 14 13 13 17 16 15 18 13 21 19 21 16 13 16 11 15 12 11 15 17 12 18 12 19 13 13 13 9 12 14 14 12 9 13 18 16 18 15 14 14 13 16 11 19 16 13 17 19 18 19 19 21 13 18 11 14 16 18 12 22 28 25 19 17 15 13 11 14 14 13 13 9 9
27 30 32 30 30 17 15 22 23 20 19 17 17 15 15 13 13 10 17 14 18 11 15 13 20 16 17 14 13 17 15 9 11 10 7 11 14 13 18 12 14 12 10 11 8 13 14 15 19 23 13 12 15 14 15 12 14 24 22 17 17 18 19 19 19 20 18 15 18 15 11 18 14 13 22 24 21 17 14 12 13 16 14 13 17 17 15 14
26 27 30 30 34 25 15 16 18 19 18 17 16 17 16 12 13 15 14 17 15 10 18 11 13 18 19 15 9 13 12 14 14 10 8 12 10 16 17 15 15 13 12 12 16 15 12 14 16 14 11 14 10 12 13 16 19 15 18 17 19 18 18 17 18 17 18 16 15 16 14 14 14 15 17 13 16 13 14 13 17 20 21 20 19 16 18 13
25 26 28 28 29 11 10 12 18 18 17 17 17 17 14 12 14 15 13 11 9 12 14 12 13 14 10 14 17 14 10 15 11 14 12 17 12 11 14 8 15 18 14 15 15 11 8 10 12 14 16 14 16 19 13 17 14 15 17 18 17 16 12 15 14 16 14 14 11 12 16 15 16 14 18 14 14 15 15 16 14 15 19 18 18 18 18 16
26 24 24 22 16 19 20 17 15 20 17 17 18 15 11 16 14 14 10 13 15 16 15 8 11 16 10 11 11 15 18 13 15 20 13 13 15 14 18 14 15 17 21 21 17 17 18 8 14 12 11 17 10 22 21 14 18 13 17 17 19 17 15 13 14 10 14 12 13 9 12 8 13 10 20 15 11 12 16 13 16 16 19 20 16 18 17 16
28 27 23 21 19 19 15 19 22 18 18 17 14 13 12 9 19 13 12 12 18 12 11 12 12 16 14 14 13 17 16 15 14 20 16 13 14 16 17 16 19 15 16 15 11 16 17 11 10 15 12 13 11 17 16 13 17 15 17 17 13 12 14 13 15 14 15 13 12 10 6 13 12 12 14 13 14 16 13 14 17 17 18 15 15 14 14 14
30 28 31 25 15 14 20 21 18 16 15 15 14 10 14 13 13 12 16 12 11 9 10 15 16 17 13 12 11 19 13 10 12 11 14 16 18 17 8 14 13 14 16 9 10 14 11 12 10 12 10 13 17 18 16 14 16 14 16 13 13 15 11 11 11 12 12 14 12 11 11 17 14 18 11 12 12 13 16 16 13 16 17 15 14 14 15 13
32 28 22 12 16 19 18 15 17 16 15 12 11 13 15 17 10 11 13 16 16 14 14 11 12 17 18 15 13 18 14 9 14 15 15 13 17 15 12 13 14 17 15 15 14 12 12 11 16 16 11 11 18 13 15 15 14 17 18 21 16 16 14 8 10 15 13 16 18 13 12 16 15 11 9 20 21 21 23 24 16 14 14 13 15 14 16 17
36 28 18 17 17 23 22 21 14 9 13 14 18 15 12 11 15 19 16 16 23 14 13 14 16 16 13 9 12 11 14 15 14 14 12 10 13 12 12 14 17 17 15 15 15 17 12 14 13 9 15 11 14 14 14 11 14 9 17 14 13 10 12 13 13 16 16 18 16 12 12 20 21 12 15 16 21 22 25 25 21 15 12 12 12 13 15 17
24 12 15 15 16 15 19 19 15 7 12 15 17 15 11 12 16 14 15 13 12 11 13 15 16 12 9 10 9 9 11 17 11 14 10 11 11 9 9 15 18 18 18 14 17 15 15 10 11 8 12 13 14 13 15 12 14 16 15 12 14 12 15 11 12 11 9 12 17 10 14 23 21 18 13 17 18 21 23 20 18 18 21 16 14 16 18 14
17 19 16 17 20 17 13 13 14 9 12 15 15 10 16 16 16 13 9 14 14 10 9 14 12 18 11 10 9 11 14 11 11 15 10 10 10 13 14 16 12 15 15 16 13 13 13 19 12 10 12 15 12 9 8 10 12 17 12 17 17 16 12 11 11 11 12 12 12 10 12 13 10 12 11 15 16 14 19 19 16 16 19 18 17 18 13 22
19 16 18 19 18 9 12 13 12 9 13 16 13 10 14 16 14 15 10 9 12 9 12 12 11 12 10 12 12 10 14 13 14 15 14 14 11 10 14 12 14 14 12 13 15 13 14 15 14 12 15 18 11 13 13 11 9 12 14 13 17 13 12 12 10 10 12 10 13 14 17 19 18 18 13 14 14 12 11 14 16 15 15 15 15 13 12 13
13 13 14 11 13 10 13 14 10 10 15 17 18 10 12 15 11 16 10 14 8 14 16 16 15 16 13 12 16 10 13 18 16 13 15 12 14 13 18 14 10 12 10 14 13 14 11 10 15 12 17 13 12 13 12 13 16 8 10 15 17 13 14 11 11 14 14 16 11 11 15 13 16 14 16 15 14 16 14 11 13 16 15 13 13 18 15 12
13 14 9 8 8 11 10 11 11 15 15 16 14 17 16 12 14 11 14 11 11 11 10 16 13 13 16 16 13 17 13 14 14 11 13 11 17 17 19 11 15 14 17 14 15 12 11 10 12 16 18 14 13 13 11 11 12 13 15 11 13 12 15 18 12 12 13 14 15 13 15 15 18 15 16 12 10 12 16 17 14 14 14 12 13 19 17 14
15 16 11 8 9 8 11 14 16 19 23 15 9 15 15 20 12 18 11 9 14 10 15 16 12 16 17 19 13 12 13 14 18 15 9 9 11 13 19 15 10 14 17 15 12 14 10 12 13 19 16 15 13 17 11 10 10 12 13 8 11 9 12 11 11 14 11 13 11 14 15 17 16 14 11 12 11 17 18 18 17 13 15 11 13 15 15 14
14 13 11 6 6 6 11 16 18 13 18 15 14 12 13 10 16 13 13 15 12 14 13 15 17 9 18 18 12 13 14 15 15 17 11 15 13 11 12 8 9 8 19 13 11 17 12 11 15 15 13 10 17 18 14 9 7 8 10 8 9 11 13 12 14 13 16 19 17 10 11 13 12 9 10 8 12 10 16 15 15 14 10 10 16 15 11 14
14 14 11 9 7 11 12 18 15 12 11 13 9 10 12 11 13 17 18 16 17 18 18 16 12 8 13 11 9 12 10 16 15 11 18 12 18 15 16 11 9 15 16 12 10 15 9 13 11 17 10 20 23 17 14 11 10 9 11 6 11 7 9 12 11 13 13 17 15 13 13 13 12 8 8 8 7 10 10 11 11 9 11 11 13 16 18 11
18 18 13 9 6 10 12 11 12 10 13 11 13 11 9 16 12 18 17 14 13 14 14 15 20 13 10 8 8 12 10 10 7 17 16 13 14 13 13 7 9 18 14 12 11 14 15 10 14 15 13 15 15 18 20 14 16 8 7 9 8 7 8 11 13 11 12 9 8 9 15 12 10 10 11 10 9 13 12 15 12 14 14 15 13 14 17 14
20 15 12 13 10 10 13 14 18 12 6 6 8 8 9 9 10 12 15 13 10 12 10 14 14 7 9 10 10 10 9 7 17 9 14 10 16 20 16 14 13 16 18 13 9 14 14 13 14 14 15 13 12 13 12 12 9 15 5 7 6 6 2 8 9 8 13 10 11 9 16 14 14 12 14 12 12 9 9 12 7 13 15 18 15 14 14 15
10 10 14 11 13 13 17 11 12 15 8 6 7 11 8 7 12 9 9 11 9 11 12 12 14 13 7 7 11 10 13 12 11 12 15 14 14 15 19 15 20 18 13 11 10 10 14 14 14 16 13 13 13 15 19 16 13 13 10 10 11 5 8 9 9 13 12 11 13 11 12 14 15 14 15 19 15 9 6 7 6 9 9 12 14 15 14 16
17 14 7 10 13 13 15 10 9 10 12 10 10 7 8 7 9 9 10 12 11 12 16 10 13 12 11 10 8 11 10 14 14 16 13 11 10 18 22 21 18 16 11 12 8 12 13 16 10 14 14 14 14 16 13 14 9 9 10 11 13 6 7 5 9 11 12 11 17 10 11 13 16 14 17 14 12 11 8 12 12 8 7 13 14 12 13 12
11 10 9 8 9 7 9 8 14 8 10 8 7 7 11 10 7 6 8 9 11 8 13 11 15 15 18 14 10 11 11 14 14 11 12 12 14 18 23 17 18 11 11 15 11 12 15 13 13 15 15 15 15 15 19 17 14 10 10 8 8 8 5 7 8 14 9 12 18 13 19 20 19 16 17 15 13 11 11 10 11 12 11 10 7 9 11 12
17 13 11 9 12 10 13 15 16 16 9 9 8 7 10 10 10 7 9 8 7 7 9 6 10 15 15 11 10 12 11 12 10 15 12 13 11 13 14 12 11 16 13 10 11 10 15 14 15 14 17 17 16 15 17 19 20 18 12 10 13 8 13 12 11 14 13 10 15 18 18 21 22 21 17 13 13 12 10 10 8 8 9 11 11 11 13 13
14 15 13 16 11 14 8 8 9 9 11 12 5 7 12 9 11 7 7 8 7 8 8 10 13 18 18 11 7 14 15 7 10 8 8 10 14 12 11 9 12 8 10 10 9 5 11 10 12 17 19 20 14 17 24 20 18 21 10 10 8 9 5 4 4 6 6 7 13 16 17 20 21 12 11 11 9 7 8 9 8 8 8 9 9 11 12 12
13 11 10 15 13 13 8 9 11 11 11 13 11 9 9 7 10 6 7 7 7 11 8 10 14 15 13 10 13 16 22 14 9 9 11 16 15 15 12 14 11 13 9 13 7 9 9 13 13 18 18 20 12 10 16 17 17 16 13 12 10 10 6 7 11 10 8 11 4 5 9 14 16 8 9 8 8 8 14 9 8 8 6 7 8 8 10 11
18 15 12 12 14 9 12 9 11 10 12 13 12 9 11 8 8 8 8 6 9 10 10 11 10 12 10 11 14 14 12 11 13 13 17 19 19 19 19 20 20 20 18 14 9 16 11 13 10 7 16 18 15 14 12 14 17 14 12 14 16 10 4 6 8 9 10 9 7 8 14 13 13 8 9 9 15 9 11 13 9 6 8 8 8 8 9 6
Wind_Speed
19 19 18 18 17 17 18 18 18 18 18 18 18 17 16 16 16 15 15 14 13 12 11 11 11 11 11 11 12 12 12 3 5 1 1 7 6 6 7 7 2 2 4 1 4 5 5 6 7 6 4 1 3 0 2 2 3 2 3 2 5 4 4 3 2 7 12 13 8 11 19 22 15 12 12 14 15 12 11 12 11 12 8 9 8 10 11 8
20 20 19 18 18 18 18 18 18 18 18 18 18 17 17 16 16 15 14 14 12 11 10 10 10 11 11 10 11 11 8 0 2 3 8 4 7 8 5 2 4 3 1 2 2 2 3 4 3 8 6 3 1 2 1 3 2 3 1 2 4 1 3 4 4 19 14 12 12 11 16 20 16 17 7 14 12 15 15 10 12 12 9 9 9 8 8 7
21 20 20 19 19 19 19 19 19 19 18 18 18 17 17 17 16 15 14 13 12 9 9 9 10 10 10 10 9 9 6 3 0 1 4 6 6 2 4 5 5 4 1 0 0 1 1 4 4 5 3 2 3 5 2 4 1 3 2 0 3 4 1 9 9 14 18 19 17 16 14 19 12 13 8 17 12 13 17 13 7 11 11 7 7 6 6 6
21 21 20 20 20 20 19 19 20 19 19 18 18 18 17 16 15 15 14 12 10 8 8 9 10 9 10 9 8 6 2 1 1 2 2 7 6 7 8 9 5 3 3 1 1 1 0 3 4 1 2 2 4 2 1 5 1 2 5 1 2 1 3 7 11 15 17 19 17 16 12 14 11 10 13 15 16 8 7 5 14 14 13 10 7 5 5 5
21 21 21 21 20 20 20 20 20 19 19 19 18 18 17 16 15 15 12 11 10 7 7 8 9 9 8 7 6 3 3 4 2 2 3 6 7 8 9 8 6 4 3 1 0 3 5 5 2 2 3 3 2 2 4 4 4 3 1 2 6 1 7 4 10 14 11 14 17 16 15 12 9 12 18 18 18 9 7 9 9 11 10 10 9 8 7 6
22 22 22 21 21 20 20 21 20 19 19 19 18 17 17 16 15 13 13 11 9 7 6 6 8 9 8 7 3 1 1 4 2 1 3 7 6 9 9 7 4 2 1 0 1 1 3 1 1 1 1 2 4 4 4 5 3 1 1 1 2 6 7 1 7 11 14 13 15 12 12 12 10 10 6 14 17 9 9 12 12 11 10 9 9 10 10 9
21 22 22 21 21 21 21 20 20 20 19 19 18 17 17 15 14 13 11 10 8 7 7 6 7 10 9 5 1 1 2 3 2 4 5 5 9 8 10 2 4 1 2 5 4 2 2 8 3 4 2 4 7 4 6 2 2 7 3 2 5 6 7 5 9 15 17 16 16 14 13 15 15 14 5 13 11 15 14 14 13 12 12 11 11 9 10 9
23 23 22 22 21 21 21 20 21 20 19 19 18 17 17 16 15 13 11 9 7 6 5 5 6 8 8 0 1 2 1 2 8 1 4 6 8 10 3 1 2 1 1 5 5 3 2 3 6 3 1 1 7 2 2 7 3 7 4 2 4 5 4 9 10 15 17 17 17 16 16 15 15 15 11 14 15 15 15 14 14 13 12 11 12 11 9 10
22 22 21 21 21 20 21 21 22 21 19 19 18 17 16 15 14 13 11 8 6 4 4 4 5 5 1 1 1 3 1 3 5 5 5 4 8 4 5 3 5 4 2 2 3 4 3 3 3 2 4 6 4 0 3 7 4 2 3 4 3 3 5 7 9 11 16 11 16 16 14 11 15 18 15 15 14 14 15 14 14 14 13 12 10 11 10 8
22 22 22 21 21 21 21 22 22 22 20 19 19 17 16 14 13 12 12 10 8 4 3 3 4 3 0 2 2 4 5 5 4 5 5 6 7 7 5 4 4 4 2 6 4 4 3 5 3 7 1 2 2 3 0 8 3 3 7 6 6 3 5 4 6 5 10 13 18 19 16 16 16 14 5 6 14 15 16 15 13 13 13 12 11 10 9 11
22 22 22 21 21 21 22 22 22 22 22 20 20 18 16 13 11 11 10 9 8 5 2 3 4 1 1 1 3 2 4 3 3 4 6 6 6 7 6 7 1 4 2 6 5 2 2 3 4 5 3 2 4 5 3 1 5 4 3 6 7 5 5 5 6 6 10 5 18 20 17 12 3 12 16 14 12 16 17 15 14 12 12 12 12 11 9 9
22 23 23 22 22 21 22 22 22 22 22 21 20 19 17 14 11 9 9 8 8 3 3 2 3 1 1 5 2 2 4 5 2 5 5 5 4 6 7 5 2 3 2 5 7 6 3 2 7 4 1 3 3 3 3 4 3 4 7 4 3 6 2 4 5 2 8 9 16 17 12 5 3 14 19 17 16 16 17 16 14 13 12 11 11 11 9 8
22 22 22 22 22 22 22 23 23 22 22 21 20 18 17 16 13 9 7 7 5 3 3 2 1 1 1 3 3 8 4 4 3 7 5 3 3 6 5 7 6 5 4 1 5 6 6 2 4 5 2 2 2 2 1 0 0 4 4 3 4 5 3 2 2 2 9 8 14 9 5 1 4 16 17 17 17 16 16 14 13 11 11 9 8 9 10 9
22 22 21 21 21 21 22 23 23 22 22 21 20 19 19 18 14 9 6 7 4 5 3 3 1 1 2 1 5 4 2 2 1 2 4 1 3 7 7 6 5 4 0 2 5 4 5 1 2 1 0 3 2 2 3 3 5 2 0 6 1 3 2 2 1 5 7 2 4 11 8 5 8 15 16 15 18 19 17 15 13 12 11 9 9 9 9 8
21 21 21 21 20 20 21 22 22 22 22 20 21 21 21 19 12 8 6 4 7 7 6 2 1 1 3 4 5 5 4 1 2 5 6 2 5 4 12 2 6 5 3 2 2 3 1 5 3 4 3 1 0 2 3 4 5 3 4 5 5 3 3 3 3 4 8 2 8 15 8 7 12 14 17 16 16 17 18 15 14 13 11 10 9 10 9 9
20 19 18 17 16 18 20 20 21 20 20 21 21 23 22 16 11 9 6 6 8 9 2 1 2 2 1 2 1 5 2 0 4 8 7 4 4 2 2 3 4 6 2 4 1 2 3 3 2 1 4 8 8 4 6 6 4 5 7 2 2 2 1 1 0 0 6 7 1 12 5 1 7 15 17 18 19 17 16 15 14 14 14 11 10 9 9 10
20 21 21 21 20 19 19 19 20 20 20 22 23 23 16 12 10 8 9 5 4 3 2 2 1 1 2 2 2 1 4 4 3 1 3 1 2 2 2 1 1 5 5 3 4 3 3 3 3 3 4 2 2 4 3 6 4 3 2 3 2 3 0 1 7 1 3 6 3 8 10 5 6 17 11 17 19 18 17 16 15 14 12 10 9 9 10 10
20 20 19 20 21 19 17 18 20 19 21 22 19 17 16 16 9 6 6 7 1 4 1 1 1 2 3 2 1 2 2 2 1 2 2 3 1 3 1 1 3 2 2 2 3 2 2 1 4 0 5 7 5 5 5 1 1 1 2 2 1 2 1 1 0 3 4 5 10 1 11 6 6 6 7 15 16 17 17 16 15 14 12 11 10 10 10 10
19 20 21 21 18 18 18 17 17 18 19 24 20 15 11 4 1 2 4 2 2 3 2 1 1 4 1 4 7 1 1 4 2 1 2 2 2 1 2 0 1 3 3 3 3 2 2 2 4 4 5 6 2 5 2 4 4 3 1 3 3 2 1 1 4 3 4 5 7 8 8 4 6 4 4 9 16 16 14 13 12 12 11 10 9 9 8 8
21 20 21 21 20 20 18 17 17 17 18 14 12 8 6 8 7 3 4 3 3 3 4 4 1 3 0 3 1 2 2 6 2 5 3 2 3 3 4 2 2 1 3 1 2 2 2 7 2 2 6 1 2 3 3 2 4 1 2 3 2 3 2 3 1 3 3 3 2 6 8 9 8 4 4 10 13 13 14 13 12 11 12 10 9 8 8 8
21 22 22 22 22 22 20 18 17 14 13 4 4 5 3 3 3 4 6 8 3 4 5 9 6 5 2 1 0 1 0 3 1 2 2 1 3 2 5 2 2 2 3 4 5 1 6 5 3 3 5 0 3 6 6 4 3 4 3 3 1 0 4 4 3 3 1 3 0 6 9 9 7 4 6 11 15 14 16 14 14 13 11 10 10 10 10 8
22 22 23 24 24 22 22 20 17 13 5 1 2 3 1 2 3 4 2 5 11 4 3 4 2 1 1 3 3 3 4 1 4 6 3 4 3 5 3 1 1 0 2 1 5 6 5 1 2 4 4 5 4 7 6 5 4 8 3 3 4 6 1 2 4 3 0 4 3 5 8 6 6 5 4 9 11 10 13 17 15 16 13 11 11 12 11 10
21 22 22 25 24 24 23 21 19 10 1 4 4 3 1 3 1 0 2 0 5 4 3 3 1 3 3 5 3 6 5 1 2 5 4 3 3 2 2 5 7 6 7 5 6 2 4 4 6 3 5 6 5 6 5 6 7 6 7 7 3 3 5 3 6 2 3 1 2 1 10 5 5 4 5 3 10 5 4 9 10 14 17 15 14 13 12 11
22 22 23 24 25 24 24 23 17 2 4 2 1 4 5 2 3 4 2 1 2 7 0 1 0 1 1 1 1 3 2 0 1 3 4 3 2 3 2 4 5 5 4 4 7 7 4 1 3 4 6 7 4 5 6 7 6 4 6 3 2 3 1 3 2 5 4 2 4 10 8 4 3 7 3 6 5 10 4 7 6 4 8 9 8 8 11 13
20 22 23 25 25 28 24 19 5 3 6 1 1 6 4 3 4 2 2 3 2 4 2 2 5 1 2 2 1 3 1 1 0 1 1 3 5 4 2 1 3 4 2 4 6 6 5 3 3 7 5 6 4 8 4 5 6 3 2 3 2 1 4 3 4 7 8 3 2 7 2 2 3 2 6 3 3 6 1 7 5 6 5 7 10 9 6 8
19 20 22 23 26 26 22 3 5 7 5 3 2 8 5 4 5 0 3 3 2 4 5 2 1 2 1 2 2 1 3 1 4 1 2 3 2 2 2 3 2 3 3 2 2 3 1 4 6 5 8 5 5 4 1 5 3 5 3 1 3 3 3 3 3 6 2 1 3 1 5 2 2 2 2 1 3 4 2 2 6 6 7 7 7 6 6 7
19 18 20 21 22 25 7 1 4 7 3 3 6 7 7 5 4 1 2 4 3 2 1 1 2 0 2 2 1 3 2 3 3 3 2 2 2 1 3 4 4 2 1 0 5 3 2 5 8 8 9 6 6 7 5 2 5 1 3 1 3 3 3 3 1 2 2 3 3 4 4 5 3 2 1 2 4 4 4 4 5 5 5 5 4 4 4 5
19 18 20 21 21 13 2 2 7 3 2 5 7 7 7 5 2 4 4 3 1 2 1 3 0 1 1 3 4 1 4 1 2 2 1 2 2 4 7 3 2 1 2 4 4 4 1 2 4 6 5 5 3 1 4 2 2 3 2 4 2 1 2 2 2 1 0 1 6 7 1 6 0 2 2 3 6 4 6 6 6 5 5 4 4 4 4 4
18 18 20 19 21 9 1 0 1 2 3 7 6 8 7 3 5 6 3 3 2 0 1 1 3 1 2 1 0 0 1 1 2 2 2 3 5 2 3 5 1 4 4 4 4 2 1 0 3 5 4 1 3 3 0 4 3 2 2 1 0 2 1 1 1 4 2 2 4 4 1 4 1 1 3 1 0 4 7 6 7 8 7 6 6 5 4 3
18 18 19 19 12 1 2 1 4 6 5 7 7 8 3 3 3 2 3 3 0 1 1 1 1 1 3 4 7 7 3 2 0 1 3 2 5 6 1 1 4 4 5 5 3 3 1 1 1 4 1 1 1 2 5 8 3 2 6 4 5 4 2 1 2 2 3 0 2 5 2 7 1 4 7 6 6 8 5 1 3 3 4 4 5 6 6 5
21 18 17 13 1 1 2 5 6 3 5 7 9 4 3 7 3 4 2 1 0 2 2 1 1 2 3 5 3 5 3 4 2 2 3 7 8 7 6 6 7 6 6 9 6 9 6 3 2 0 2 2 4 4 5 4 5 7 3 2 6 5 8 4 3 4 2 2 5 3 3 2 5 3 6 7 4 5 10 9 8 6 7 6 6 5 5 5
22 20 15 7 4 3 2 3 4 5 6 8 5 5 4 1 6 4 1 1 1 3 1 3 2 2 4 3 4 3 2 4 5 3 3 2 5 7 4 5 2 4 6 4 5 6 4 3 0 2 3 7 3 6 7 7 9 8 3 8 6 3 5 2 6 2 1 3 2 1 3 5 2 2 6 4 3 3 6 8 11 10 7 6 6 6 5 5
23 20 20 5 6 2 6 7 6 5 6 7 3 4 4 4 3 2 0 0 1 1 2 1 0 3 2 6 3 3 2 2 3 2 3 3 7 4 5 4 0 3 2 2 1 6 4 3 4 5 6 3 5 6 4 6 6 7 5 2 3 1 2 0 2 1 4 6 6 0 1 2 2 2 1 5 3 4 7 5 7 11 10 9 8 6 6 6
22 19 8 3 8 8 6 3 4 4 6 6 4 5 7 7 0 3 2 0 1 1 1 0 1 4 4 2 1 2 5 3 3 2 3 1 4 3 4 7 4 6 3 1 5 0 5 4 3 1 1 4 3 3 2 3 1 0 1 0 3 4 0 1 1 0 2 6 7 4 2 2 3 3 1 2 3 3 2 4 6 8 9 8 6 6 5 5
24 14 4 2 3 9 13 9 5 1 2 3 9 5 4 0 1 0 1 1 2 1 1 2 3 3 3 3 3 2 2 1 3 3 7 5 2 2 1 3 4 5 2 4 2 2 1 3 5 3 2 1 3 1 2 2 2 1 2 6 5 3 6 1 4 2 2 1 4 4 0 1 2 1 2 1 4 4 3 5 7 5 4 5 4 6 7 6
12 4 2 3 2 4 6 5 3 3 3 7 7 5 2 1 1 0 1 1 0 1 2 3 4 5 2 2 2 4 5 2 6 3 2 3 2 2 1 1 2 2 3 2 1 2 4 4 4 4 5 4 2 1 2 3 2 5 5 2 4 6 5 0 1 0 1 3 0 1 2 3 1 5 2 1 4 2 3 4 5 6 6 6 7 7 5 4
6 7 3 2 2 2 5 5 5 5 4 7 5 1 3 1 1 2 2 1 1 1 3 3 4 2 0 1 1 3 3 3 4 3 1 1 3 2 1 2 2 2 3 3 2 2 1 5 5 5 3 3 2 1 3 3 2 3 4 5 3 2 5 3 1 4 3 1 1 2 3 1 1 1 1 2 2 1 2 3 4 5 5 7 7 6 5 6
6 3 3 5 6 3 5 6 7 3 3 3 2 3 2 1 2 2 1 2 2 3 3 2 0 4 1 2 4 3 5 6 7 3 1 1 1 0 2 1 3 2 1 2 4 2 2 2 1 3 5 4 7 6 7 6 3 4 1 2 4 1 2 4 2 2 3 2 1 1 1 1 3 2 3 3 3 5 4 3 3 5 6 7 6 6 6 6
1 2 2 2 2 4 4 7 5 4 3 3 1 3 2 1 1 1 1 3 2 3 2 0 3 2 2 2 1 2 4 2 2 3 1 0 2 1 1 2 2 5 5 7 5 1 4 2 4 4 4 3 3 5 3 6 8 2 2 5 1 5 2 1 0 2 4 2 2 3 3 1 1 2 6 9 8 7 5 4 7 9 9 8 5 5 6 6
4 2 1 2 1 3 4 5 4 4 4 1 1 2 4 1 1 1 1 2 1 2 0 1 1 2 3 1 1 1 1 2 3 2 1 2 3 3 1 2 0 3 6 5 3 1 1 2 1 6 7 3 2 2 0 2 2 6 7 4 5 1 1 2 1 1 1 2 1 1 1 2 6 4 3 5 6 8 9 10 9 9 9 7 7 6 6 6
2 1 1 2 2 1 5 5 2 1 0 2 2 2 1 0 2 4 8 5 1 2 2 2 1 2 2 1 4 1 0 1 2 2 0 1 2 1 2 2 2 2 2 6 6 3 2 2 0 4 6 2 2 4 2 2 1 2 2 1 2 2 4 2 3 3 2 2 0 0 3 5 8 2 5 6 6 10 11 11 10 8 9 7 7 6 8 7
1 1 1 2 1 3 3 1 1 1 1 1 1 0 0 1 1 3 5 5 4 3 2 4 3 3 1 2 2 1 1 1 1 2 1 1 1 3 2 4 5 2 3 1 1 1 3 2 3 2 1 1 3 2 2 4 3 2 3 1 5 4 5 4 0 3 3 1 0 1 1 5 6 2 3 1 4 5 10 9 9 9 6 5 7 8 5 6
2 2 5 4 1 5 3 1 2 2 1 3 3 0 0 2 1 2 4 4 2 2 2 3 1 3 1 2 0 1 1 1 1 0 1 1 0 1 3 5 1 6 6 1 1 2 4 2 3 3 5 5 5 5 3 3 3 4 2 1 2 1 3 6 4 2 0 5 2 2 1 3 3 4 4 5 1 2 3 5 7 4 4 5 7 6 7 6
1 2 5 3 3 4 3 1 1 5 3 4 1 1 3 1 2 3 3 2 1 2 1 1 3 1 2 1 2 0 0 2 2 1 1 1 2 5 6 4 4 2 2 2 3 2 1 2 3 1 3 6 7 8 6 7 6 2 2 3 1 2 3 1 4 2 0 1 1 2 2 2 3 4 6 6 6 3 3 1 4 4 1 5 7 7 7 8
2 2 2 6 5 4 1 4 4 1 2 2 1 3 1 3 1 2 2 3 2 2 1 1 2 3 1 1 1 1 0 2 0 2 2 1 1 3 5 8 6 2 2 4 5 2 4 1 2 1 1 2 4 5 5 4 3 3 1 4 2 1 1 3 1 2 1 1 1 1 3 7 8 6 5 3 5 6 1 1 2 2 8 7 7 8 9 9
1 1 5 2 3 1 1 0 2 2 1 0 2 2 2 1 2 4 5 2 3 1 2 1 3 3 2 2 2 1 0 1 1 1 2 1 2 2 3 4 3 1 2 8 4 4 1 1 3 3 2 4 5 5 5 1 2 1 4 1 3 2 2 4 4 3 3 2 1 4 4 3 9 8 7 8 7 3 2 1 4 3 3 5 8 8 8 9
0 2 1 1 5 2 2 3 1 2 2 2 2 1 2 0 1 1 2 1 2 2 2 3 2 2 1 4 1 1 1 1 3 2 1 0 2 1 6 3 1 2 7 4 3 5 2 2 0 3 2 2 3 5 4 5 3 3 2 4 3 0 1 3 3 4 5 3 6 4 3 1 7 7 7 5 5 3 1 1 3 3 5 7 8 7 8 6
1 2 1 2 2 1 2 2 1 2 1 2 0 1 0 1 2 0 3 1 1 3 2 5 7 3 3 3 2 1 2 1 2 0 1 1 1 4 2 2 2 3 4 1 1 3 3 1 2 1 1 2 3 4 3 2 4 4 4 5 6 4 3 4 4 6 5 3 7 4 4 2 6 7 8 6 6 6 6 6 7 8 7 5 5 6 7 8
1 2 1 2 0 2 2 3 2 3 3 0 0 0 0 2 0 1 2 1 3 2 3 1 3 4 3 1 2 1 0 1 1 1 0 1 0 1 2 4 1 3 2 1 1 1 4 0 2 1 0 3 4 2 2 3 2 2 4 5 7 4 9 8 6 3 8 6 6 5 3 7 9 8 9 8 8 8 6 3 0 1 4 8 7 8 9 9
2 2 3 5 1 1 2 2 0 3 1 1 2 1 2 2 1 1 2 2 0 2 2 5 0 4 4 5 3 3 1 2 2 0 1 1 3 1 1 3 1 3 3 0 1 1 3 3 4 1 2 2 3 4 1 4 3 4 6 6 5 4 3 2 0 1 1 3 4 2 3 8 7 5 6 5 4 3 5 3 5 5 4 3 6 8 8 8
2 2 0 1 3 4 3 2 1 2 1 2 1 2 1 1 2 2 1 0 2 1 1 3 3 4 3 5 4 2 3 3 4 3 4 2 1 3 2 3 2 2 3 0 1 1 2 1 2 2 1 3 3 1 3 2 1 2 8 8 7 2 3 3 2 4 5 7 0 1 2 6 9 5 4 5 4 3 6 6 5 5 4 2 3 5 7 8
2 2 1 2 0 1 1 2 1 2 1 4 3 2 2 2 5 5 2 3 1 2 2 4 2 6 1 4 2 1 3 2 3 4 4 5 4 4 4 4 2 2 1 0 1 3 3 4 1 0 0 2 4 1 3 3 4 7 4 3 5 4 1 0 2 2 4 5 3 2 7 6 7 2 4 3 2 6 6 4 3 3 4 5 6 6 6 4
Wind_Direction
345 346 345 343 342 340 340 340 339 339 339 339 337 337 337 337 337 333 331 332 330 328 327 322 314 305 299 312 322 324 332 355 339 360 320 239 208 190 195 223 137 170 239 44 9 23 341 343 334 335 356 94 259 301 237 153 178 111 159 169 287 223 328 229 170 130 126 118 137 123 111 109 107 96 98 84 78 85 85 79 76 60 56 82 93 101 117 138
344 345 345 343 342 341 341 341 339 338 339 338 337 337 337 338 339 336 333 332 333 329 326 321 306 299 308 313 322 326 336 3 299 281 246 236 206 191 229 227 158 205 211 55 52 25 359 313 336 9 3 333 261 228 45 288 128 156 214 82 236 245 261 301 83 114 121 126 126 117 110 107 116 114 134 99 98 98 83 74 92 91 71 72 84 105 118 118
344 345 346 343 342 341 342 341 339 339 340 337 336 337 338 339 339 335 333 336 336 335 322 307 303 304 304 314 320 328 347 322 272 306 273 221 216 221 237 235 184 169 117 147 249 136 212 275 314 2 329 278 269 246 115 257 122 226 108 320 269 221 350 45 70 121 123 127 119 113 105 107 122 111 133 108 110 104 117 124 99 113 123 115 110 115 121 123
345 346 345 343 342 342 342 340 339 341 339 337 335 336 337 338 337 336 338 336 335 330 317 304 303 303 302 308 326 325 307 9 36 270 267 198 211 219 233 229 181 123 80 115 165 147 272 302 307 166 290 232 286 283 295 254 140 253 87 166 240 280 56 1 77 115 125 124 123 116 116 107 125 129 117 122 98 94 110 125 141 144 140 137 134 129 126 120
345 345 344 342 342 341 341 340 339 341 339 336 336 335 336 336 337 335 332 332 332 327 316 308 303 298 301 310 319 342 350 53 300 231 234 172 203 226 234 243 163 153 155 168 279 227 220 222 227 191 170 256 214 167 241 254 199 93 148 219 173 115 62 31 81 111 119 116 116 119 119 115 118 113 125 133 126 150 151 131 119 123 125 129 129 125 107 101
346 345 344 344 343 342 341 340 339 339 338 335 333 333 334 335 334 331 331 333 331 325 319 308 302 301 307 311 309 266 65 78 252 296 182 194 210 233 245 252 108 102 100 331 189 239 265 264 173 12 281 209 233 194 265 209 152 123 315 50 344 115 116 76 75 101 117 118 113 116 119 120 116 105 108 119 124 132 119 114 110 107 108 108 107 109 106 105
345 345 344 344 344 342 341 339 337 337 336 333 331 331 331 330 329 331 332 332 330 327 322 315 307 309 317 332 197 55 94 266 291 235 138 229 232 234 238 142 105 53 31 332 306 334 8 329 357 265 245 258 279 205 247 167 93 111 155 129 56 75 76 61 83 96 105 105 114 123 134 119 126 105 124 101 108 116 115 112 108 104 104 101 95 92 97 96
345 345 345 345 344 343 340 337 336 334 334 331 329 330 330 328 331 329 328 328 322 322 316 310 304 305 348 161 27 9 41 272 256 173 212 225 254 260 319 168 142 94 356 246 282 294 23 303 295 299 228 310 282 207 211 70 61 118 141 151 133 84 107 90 86 98 103 107 116 122 124 134 126 120 119 112 120 120 118 115 111 110 102 95 93 92 90 88
345 345 345 345 344 342 339 336 334 332 332 329 328 328 329 326 327 326 325 324 318 307 299 288 297 300 141 103 95 53 14 245 217 249 221 231 260 291 135 315 155 166 216 263 227 217 104 258 239 134 314 325 312 244 30 95 20 85 77 101 99 97 92 87 78 96 110 118 121 115 114 116 107 106 104 128 124 123 120 115 117 112 107 101 97 96 91 84
344 344 344 343 343 340 338 336 333 331 329 328 327 327 324 325 323 321 320 324 320 316 291 286 293 304 319 44 37 88 258 228 277 245 245 234 275 304 313 255 161 198 323 308 315 95 145 235 8 321 235 242 321 350 343 72 155 134 117 113 115 148 88 66 113 123 115 130 125 117 126 130 136 122 108 129 129 126 120 121 121 118 116 114 111 101 94 91
343 343 343 343 341 339 337 335 332 330 327 327 326 324 322 322 319 316 315 313 310 310 316 320 323 303 50 75 91 138 245 83 262 246 251 250 281 318 289 303 308 349 352 308 332 311 225 2 29 351 44 287 358 307 58 199 119 66 117 84 85 75 87 112 83 104 108 117 124 124 127 138 180 115 146 149 143 133 128 128 129 127 125 125 119 108 102 100
342 342 342 342 342 339 337 333 331 330 327 326 325 322 320 316 314 308 300 294 289 309 345 4 16 25 87 70 117 186 213 225 183 239 251 252 282 260 275 264 290 297 4 318 310 322 352 2 40 45 289 334 347 329 26 305 83 146 91 62 352 74 45 86 130 194 106 129 122 118 109 106 146 132 145 147 143 137 133 135 135 133 130 126 123 116 110 111
341 341 342 343 342 340 336 333 331 330 327 324 322 316 315 312 310 302 283 282 259 333 312 13 264 280 89 31 243 235 249 214 186 214 253 283 295 308 288 293 279 263 247 232 302 310 328 20 57 5 255 24 292 70 227 51 204 48 44 127 26 21 24 286 90 76 98 154 156 116 68 291 131 138 143 146 142 139 134 138 141 136 133 130 126 120 119 115
341 339 341 342 340 338 336 333 331 329 326 324 317 314 312 308 307 294 259 232 253 240 216 222 82 85 74 239 284 278 232 108 72 272 250 290 3 287 305 272 281 293 272 306 290 282 349 342 66 256 278 66 329 319 24 349 22 83 319 58 100 75 164 269 162 147 96 207 167 102 121 133 144 147 146 149 149 146 143 146 145 139 136 136 134 127 121 120
339 336 337 339 337 337 335 333 331 328 324 321 316 312 310 306 301 283 245 201 222 180 149 101 41 74 26 292 260 294 259 93 12 243 242 191 216 283 273 313 293 275 277 236 270 325 281 14 47 34 316 318 349 39 1 29 18 12 49 325 333 97 276 326 28 100 128 22 100 89 110 179 159 158 155 156 155 148 144 148 147 142 142 145 141 134 131 129
334 332 329 330 332 333 334 333 329 325 323 320 316 310 306 298 293 274 233 194 157 145 132 33 6 75 91 351 269 316 22 130 244 246 260 170 181 210 221 214 282 303 321 288 299 315 356 61 45 235 338 3 41 79 35 29 343 3 93 17 338 32 234 23 75 151 150 134 349 125 169 135 168 166 164 163 156 152 144 149 149 145 147 148 145 140 139 132
332 333 331 334 334 333 333 333 329 325 321 318 316 305 301 286 284 277 267 192 173 182 176 91 161 132 81 249 310 332 255 248 247 326 287 270 186 205 359 331 249 262 298 329 335 1 336 47 307 21 27 68 141 79 55 22 339 331 8 108 256 126 34 9 291 252 156 104 49 119 130 205 171 168 182 168 157 152 150 151 150 149 150 149 148 145 141 139
332 329 326 329 333 332 331 332 332 325 323 315 309 293 296 300 318 296 75 98 136 152 240 249 88 44 318 338 351 247 225 285 200 247 322 266 214 317 14 311 311 1 2 353 356 32 323 10 35 297 3 1 29 35 96 146 173 349 2 42 342 319 127 155 208 278 57 50 111 119 138 192 190 177 140 155 162 152 152 150 150 149 150 152 148 147 145 145
330 329 330 331 327 331 332 331 328 329 323 316 294 285 256 252 302 80 80 95 36 353 25 328 59 96 169 249 257 240 45 219 345 68 261 316 329 81 336 196 91 353 326 48 289 43 348 27 20 39 9 359 359 121 150 206 152 128 166 191 167 170 284 174 252 296 103 83 115 142 157 181 175 163 134 118 148 145 142 137 141 144 146 146 149 147 147 143
334 332 333 330 330 330 332 333 332 328 335 337 2 4 21 12 4 337 338 65 129 190 236 255 196 280 331 359 40 260 344 21 14 315 337 288 330 2 324 278 314 70 88 236 328 15 90 69 51 277 280 312 270 95 91 178 169 107 32 326 356 275 260 283 20 310 136 88 138 171 151 167 182 148 89 126 133 122 133 141 146 151 151 153 150 148 145 142
333 335 333 331 332 329 329 333 329 324 332 300 316 40 65 15 17 332 328 290 220 214 246 276 216 176 191 216 254 73 52 348 350 271 202 243 127 53 315 17 34 322 268 190 142 323 66 58 318 251 268 289 11 17 9 6 43 86 121 173 288 132 220 225 209 230 342 111 27 134 145 180 159 127 129 125 129 139 147 150 154 154 152 151 148 146 151 153
336 335 334 334 332 330 328 331 328 333 323 226 47 56 129 162 181 193 98 325 324 313 219 254 244 26 14 120 311 105 111 109 343 345 309 61 357 63 301 85 99 192 297 27 23 24 42 107 275 274 326 6 27 29 31 65 33 31 74 120 53 345 277 324 1 75 121 89 227 145 139 184 154 130 105 128 133 151 159 155 157 149 150 152 154 155 156 154
335 335 336 336 334 330 330 324 327 339 60 22 23 350 34 308 13 52 114 174 279 272 303 0 35 11 345 348 317 66 49 32 8 339 319 58 3 80 349 36 7 23 24 38 123 75 35 299 266 357 12 23 358 33 41 41 52 49 36 48 61 300 68 337 311 15 311 138 217 215 87 74 65 81 99 116 134 134 125 137 145 151 151 159 164 160 155 154
337 336 336 337 333 330 324 324 307 287 9 335 196 1 305 328 25 44 77 191 281 316 352 257 203 159 13 33 321 61 98 251 89 315 316 55 28 329 53 23 32 47 21 44 112 110 168 238 283 23 28 39 20 13 45 69 53 28 74 88 52 13 18 123 321 327 321 337 90 74 73 68 122 121 98 31 38 98 100 110 106 116 139 148 147 151 159 159
335 338 338 337 336 329 322 320 46 347 288 277 329 348 345 344 27 122 90 351 12 296 236 12 24 12 257 282 276 77 280 7 14 262 293 78 5 33 343 353 86 21 10 105 72 55 19 316 20 30 23 31 53 40 24 98 42 356 45 109 142 161 26 21 24 36 17 349 308 132 81 221 259 154 113 109 69 82 50 121 129 151 146 152 158 164 172 167
335 336 338 339 336 329 316 13 345 340 337 77 341 327 342 319 355 28 94 82 358 276 1 320 7 333 13 324 36 142 58 32 244 254 96 180 138 120 28 357 120 25 10 48 135 146 83 351 60 45 52 32 44 60 34 98 100 61 296 274 59 62 70 26 33 66 19 54 286 37 148 234 348 51 9 50 79 74 59 120 162 174 173 174 171 175 173 168
332 334 340 340 338 336 16 308 302 304 24 322 338 326 321 313 327 62 56 2 36 276 319 238 50 137 74 247 54 48 52 272 297 343 18 346 69 360 94 354 8 323 343 128 43 327 3 6 32 34 58 46 30 23 326 93 94 80 251 286 41 14 346 292 1 122 213 253 300 36 124 132 163 279 199 121 108 135 153 192 194 200 198 195 195 190 180 172
331 335 339 341 332 341 176 325 339 24 234 274 309 313 311 308 19 59 78 62 339 288 360 306 221 301 30 309 58 119 197 207 29 294 297 317 71 352 79 26 127 43 331 67 103 254 102 350 67 49 52 56 32 247 292 352 106 211 266 272 296 224 249 305 351 59 173 50 297 323 13 74 222 272 131 156 128 205 217 192 206 221 221 217 200 199 193 183
328 333 338 338 325 325 172 206 4 253 274 306 301 314 313 21 73 101 113 97 252 291 62 104 293 61 283 357 347 292 352 65 134 264 332 19 24 134 30 355 98 60 18 104 152 291 4 134 141 125 102 30 258 301 18 29 41 277 222 285 359 10 244 200 204 278 334 67 279 290 69 110 297 272 177 252 181 223 226 207 208 210 204 195 188 195 194 185
327 331 336 335 322 110 321 175 221 246 301 305 315 312 358 53 35 39 13 77 188 286 225 233 46 289 41 48 23 9 41 321 92 23 53 145 346 30 35 77 70 50 13 360 92 206 261 295 161 81 125 202 335 328 34 25 320 260 44 19 335 15 10 1 59 100 58 40 263 238 227 130 227 226 199 165 218 201 202 167 233 205 185 194 194 188 182 178
324 326 330 337 339 323 326 326 258 254 297 323 318 355 66 36 103 96 91 229 348 287 329 298 259 1 46 68 40 347 26 346 358 67 3 9 14 28 18 14 29 53 21 6 360 338 8 348 36 310 86 14 70 0 12 24 30 55 27 30 15 343 6 33 344 43 90 273 261 295 360 81 126 259 234 232 252 184 167 189 186 198 194 183 188 194 185 179
321 318 321 311 231 344 174 245 273 343 336 324 354 49 64 17 9 96 152 320 65 289 52 308 336 91 62 55 76 24 354 337 4 49 48 47 53 46 28 99 23 55 359 341 334 343 4 11 342 21 352 68 9 46 330 10 20 43 54 32 67 292 30 341 11 10 148 187 241 129 194 27 29 218 207 206 261 209 194 179 181 183 189 183 193 192 191 186
318 316 317 258 191 212 241 255 311 322 337 344 54 48 62 98 65 272 334 46 238 207 348 217 105 71 116 54 342 322 32 76 346 52 104 19 92 55 64 85 156 129 110 295 25 16 296 285 17 321 15 22 90 75 330 8 347 26 45 86 67 37 34 187 280 226 322 298 265 266 62 108 262 327 187 155 219 193 193 191 163 172 179 183 187 191 191 192
313 316 323 180 192 223 250 265 268 8 360 3 74 36 46 63 134 303 74 322 181 227 240 60 6 36 52 112 309 70 15 301 77 324 57 338 55 68 0 360 21 23 82 59 67 317 58 353 307 11 4 301 71 144 170 180 190 202 248 123 155 142 161 300 231 206 218 221 290 314 108 205 109 243 305 134 124 101 100 126 156 169 177 178 183 186 188 189
311 300 228 246 255 246 238 247 270 18 27 52 53 81 95 232 236 181 36 301 318 40 50 340 110 68 4 13 334 22 135 318 2 51 35 58 17 72 352 345 353 104 78 72 303 76 305 217 258 292 203 128 71 301 104 77 37 293 118 90 50 303 143 303 205 172 241 322 355 356 127 170 141 264 47 70 78 70 97 118 131 150 163 167 174 191 195 194
319 314 161 266 198 263 181 211 150 122 79 54 76 45 91 177 144 145 98 206 310 67 327 24 57 62 8 342 337 25 354 108 338 63 1 76 41 75 295 53 12 7 91 102 213 22 28 344 277 349 349 69 114 87 12 99 69 281 51 8 243 190 123 292 357 330 65 53 302 226 20 29 23 19 336 6 94 84 94 124 138 157 170 164 188 201 193 181
8 328 34 294 262 214 164 160 136 101 59 87 91 45 206 304 201 155 266 132 188 133 56 78 340 64 7 16 315 337 336 57 360 78 324 32 16 8 57 24 33 41 120 130 335 194 130 261 314 38 30 352 353 78 94 68 138 68 36 277 287 64 123 121 249 327 55 114 254 23 162 203 75 261 286 334 110 189 162 185 171 169 165 178 199 201 191 182
340 338 249 273 242 234 152 143 107 60 78 80 77 240 228 115 282 145 193 54 21 34 89 93 267 82 15 94 355 352 327 81 319 50 291 349 132 7 66 338 305 76 2 135 121 298 101 11 303 354 24 316 355 34 10 333 47 88 251 228 69 323 350 324 84 359 336 349 299 356 350 285 166 215 131 254 222 218 217 237 197 196 196 203 201 204 200 185
312 31 42 257 255 156 136 126 82 75 60 48 301 28 278 178 294 64 201 144 118 120 78 233 140 327 131 65 246 343 42 80 307 65 72 299 81 328 56 173 302 331 26 66 55 322 50 121 305 308 17 301 21 52 7 304 327 21 39 17 341 102 165 19 203 177 119 252 76 257 42 240 222 224 187 203 214 203 201 212 218 210 206 202 193 198 186 179
14 44 321 285 209 111 98 78 57 45 67 79 222 196 232 109 283 298 299 98 359 80 252 119 101 112 24 175 146 110 335 103 59 312 120 294 112 271 283 3 145 338 50 78 120 99 63 112 299 279 321 28 18 2 297 296 338 339 26 337 355 352 219 109 356 72 192 195 167 173 328 282 267 218 187 238 201 202 192 205 213 218 217 205 191 185 179 179
307 109 266 275 128 129 56 50 48 61 171 261 190 224 340 60 336 2 335 62 94 103 133 112 130 91 193 63 2 295 73 41 70 36 354 351 129 322 252 213 194 39 46 27 51 6 66 20 78 310 11 16 234 234 229 259 196 152 144 101 179 52 32 48 271 348 40 73 224 120 248 267 268 207 204 189 230 182 201 198 210 220 219 198 191 186 175 172
60 63 244 285 311 80 75 37 311 233 115 204 247 172 359 278 69 336 27 8 67 51 46 96 69 114 80 73 168 360 92 51 78 92 332 123 293 142 257 145 178 138 110 117 145 231 142 156 90 360 218 227 232 257 266 257 181 143 126 93 136 128 108 100 37 287 1 294 34 172 125 276 239 224 228 195 221 209 195 198 208 219 216 198 191 178 178 166
57 214 251 279 303 89 72 43 300 32 255 234 251 310 127 63 113 16 63 20 53 37 42 47 164 83 253 140 336 74 106 80 150 160 213 160 254 219 233 174 309 68 79 335 25 290 79 68 33 299 314 298 309 313 329 18 46 21 358 32 72 49 162 166 175 197 112 325 36 353 215 247 290 326 295 273 312 256 219 196 193 232 228 176 161 158 152 154
267 268 316 314 58 90 85 176 331 312 289 309 70 299 359 137 74 23 44 346 84 355 87 141 33 132 156 109 87 56 142 66 285 66 357 254 36 333 42 50 56 70 94 223 123 262 61 301 118 23 2 335 343 348 356 340 45 79 298 304 67 80 67 126 94 42 219 230 170 127 244 291 276 336 347 6 331 323 240 184 161 135 180 158 157 156 161 168
302 270 248 294 356 71 199 189 143 184 283 274 9 16 347 20 11 126 101 28 14 66 69 355 168 152 56 134 99 80 173 142 277 299 139 27 94 25 68 96 94 100 162 192 144 92 92 192 89 101 87 5 329 328 299 301 274 274 301 339 355 29 107 13 321 19 85 274 126 148 262 258 279 316 347 358 314 285 269 86 321 244 157 162 165 166 171 171
48 114 299 334 5 38 333 140 124 144 241 350 44 292 90 66 343 352 84 45 40 21 90 130 24 75 70 58 42 31 15 316 106 286 36 344 325 13 265 121 96 132 215 116 116 81 141 86 103 150 152 185 214 227 247 120 13 301 278 334 280 74 82 93 105 102 209 232 321 236 194 277 312 310 326 325 344 314 252 63 155 210 219 178 172 173 175 184
313 89 314 329 339 30 253 342 45 100 219 151 97 241 31 167 228 334 14 81 346 53 24 59 26 60 337 67 119 39 293 16 344 77 44 110 254 222 292 159 116 121 130 112 118 81 66 42 316 143 171 199 210 212 220 162 210 243 247 280 297 175 165 126 153 231 188 69 298 266 196 6 274 280 275 286 308 310 312 209 162 196 210 193 194 193 197 198
63 258 99 190 137 248 38 318 60 17 82 98 166 47 149 58 28 142 339 7 78 41 93 339 31 61 126 156 125 67 339 13 1 79 335 306 12 334 23 333 118 217 122 89 68 112 138 128 260 98 275 230 204 230 214 169 215 223 213 236 267 261 152 187 230 208 144 190 219 237 186 264 270 267 274 241 234 229 206 207 192 188 186 203 189 192 202 208
158 274 262 354 109 256 185 231 99 82 28 92 125 79 20 96 109 220 162 349 22 352 79 87 355 14 41 80 99 156 339 76 305 302 167 309 13 358 357 343 326 350 87 82 15 107 86 262 214 154 322 331 309 270 230 203 259 258 257 238 229 210 220 212 233 200 177 209 217 241 257 252 249 268 272 252 224 215 230 217 34 221 204 187 188 196 201 206
357 51 312 354 58 276 275 311 91 68 24 341 103 263 152 175 178 338 21 96 37 324 20 92 181 52 60 67 91 113 200 172 174 237 273 141 320 91 237 197 235 329 39 96 160 344 104 268 190 93 49 310 279 321 148 212 196 247 266 261 266 251 251 219 245 269 189 304 285 236 265 278 268 224 251 277 288 294 306 265 214 219 245 214 185 191 200 205
300 263 202 332 359 288 343 15 33 106 85 328 84 271 87 211 106 159 73 134 145 178 91 167 160 92 58 85 82 139 210 178 186 198 210 168 207 229 130 278 159 330 348 63 45 340 72 257 50 71 39 304 298 286 294 335 277 254 279 285 278 200 241 233 182 216 150 226 105 57 317 274 277 272 245 277 279 206 232 235 248 247 209 210 249 208 196 205
306 291 346 137 218 281 358 315 351 56 348 226 160 229 164 235 166 120 60 319 99 81 164 155 164 101 40 82 140 196 244 230 239 237 231 234 204 228 206 219 229 208 204 170 108 134 170 126 148 160 284 257 261 348 316 9 17 347 311 256 210 218 196 316 284 240 214 147 126 192 234 225 241 281 343 312 271 250 249 242 255 272 215 185 190 212 225 224